www.pogodaiklimat.ru

Погода и климат >> Архив погоды >> Таиланд >> Nan Agromet


ПОГОДА в Nan Agromet

  • Прогноз погоды в Nan Agromet
  • Монитор погоды в Nan Agromet
  • Климат города

АРХИВ ПОГОДЫ в Nan Agromet

Время (UTC), дата Ветер
(напр.,м/с)
 
Видим.   Явления Облачность Т
(С)
Тd
(С)
f
(%)
Тe
(С)
Тes
(С)
Комфортность P
(гПа)
Po
(гПа)
Тmin
(С)
Tmax
(С)
R
(мм)
R24
(мм)
S
(см)
06 8.08 ЮВ 3 12 км 8/6 600 м
[Cu Sc Ci fib]
+31.9 +23.2 60 +42 +49 опасность
перегрева
1003.1 973.8
09 8.08 З 2 12 км 8/3 600 м
[Cb calv Ac As Ci ing]
+31.1 +24.5 68 +44 +47 опасность
перегрева
1000.8 971.5
12 8.08 штиль 0 12 км 8/3 600 м
[Cu Sc Ac und Cs]
+29.1 +26.1 84 +44 +44 опасность
перегрева
1002.1 972.6 +32.0
15 8.08 штиль 0 12 км 6/3 300 м
[Sc Ac und Cs]
+26.6 +24.9 90 +38 +38 очень
душно
1005.2 975.4
18 8.08 С 1 10 км гроза без осадков 3/1 100 м
[Cb cap Ci fib]
+26.1 +24.5 91 +37 +37 очень
душно
1004.0 974.2
21 8.08 штиль 0 10 км зарница {гроза} 10/8 600 м
[Cb cap Ac As]
+25.1 +23.9 93 +34 +34 очень
душно
1003.3 973.4
00 9.08 З 1 8000 м гроза, ливневой дождь 10/9 100 м
[Cb cap Ac As]
+25.6 +24.7 95 +36 +36 очень
душно
1004.6 974.7 +25.1 0.0
03 9.08 штиль 0 10 км слабый дождь {гроза} 10/6 600 м
[Sc Ac As]
+26.5 +24.8 90 +38 +40 очень
душно
1005.4 975.6 3
06 9.08 штиль 0 10 км {гроза, дождь} 10/6 600 м
[Sc Ac As]
+30.3 +24.1 69 +42 +45 опасность
перегрева
1003.5 974.1 0.0
09 9.08 штиль 0 10 км в посл. час дождь {гроза} 10/6 600 м
[Sc Ac As]
+27.0 +24.8 88 +39 +40 очень
душно
1002.4 972.7 12
12 9.08 штиль 0 10 км слабый дождь {гроза} 10/6 600 м
[Sc Ac As]
+25.8 +23.9 89 +35 +35 очень
душно
1003.5 973.7 +30.5 0.5
15 9.08 штиль 0 8000 м дымка {дождь} 10/6 600 м
[Sc Ac As]
+25.0 +23.5 91 +34 +34 очень
душно
1005.0 975.1 0.2
18 9.08 штиль 0 5000 м дымка {дождь} 10/6 600 м
[Sc Ac As]
+24.5 +23.8 96 +33 +33 очень
душно
1005.3 975.3
21 9.08 штиль 0 5000 м дымка 8/3 600 м
[Sc Ac und Cs]
+24.0 +23.3 96 +32 +32 очень
душно
1004.0 974.0
00 10.08 штиль 0 8000 м дымка 10/6 600 м
[Sc Ac As]
+24.0 +23.3 96 +32 +32 очень
душно
1005.0 974.9 +23.8
03 10.08 штиль 0 12 км 8/3 600 м
[Sc Ac und Cs]
+27.0 +24.4 86 +38 +47 очень
душно
1006.3 976.5
06 10.08 штиль 0 12 км 8/3 600 м
[Sc Ac und Cs]
+29.2 +24.3 75 +41 +54 опасность
перегрева
1004.3 974.8
09 10.08 штиль 0 12 км 5/3 600 м
[Cu med, cong Ac und Cs]
+31.4 +23.9 64 +43 +49 опасность
перегрева
1001.7 972.4
12 10.08 штиль 0 12 км 5/3 600 м
[Cu med, cong Ac und Cs]
+29.2 +23.9 73 +40 +40 очень
душно
1002.2 972.7 +31.5
15 10.08 штиль 0 8000 м дымка 6/3 600 м
[Sc Ac und Cs]
+26.7 +24.5 88 +38 +38 очень
душно
1004.6 974.8
18 10.08 штиль 0 5000 м дымка 8/3 600 м
[Sc Ac und Cs]
+25.4 +24.1 93 +35 +35 очень
душно
1004.6 974.7
21 10.08 штиль 0 5000 м дымка 8/3 600 м
[Sc Ac und Cs]
+24.7 +23.7 94 +34 +34 очень
душно
1003.7 973.8
00 11.08 штиль 0 12 км 6/3 600 м
[Sc Ac und Cs]
+25.0 +24.1 95 +34 +35 очень
душно
1004.3 974.4 +24.6
03 11.08 ЮЗ 2 12 км 10/6 100 м
[Sc Ac und Cs]
+28.0 +23.8 78 +39 +42 очень
душно
1004.7 975.1
06 11.08 Ю 1 12 км 10/6 100 м
[Sc Ac As Cs]
+30.0 +23.6 69 +41 +46 опасность
перегрева
1002.9 973.5
09 11.08 Ю 1 12 км 9/3 600 м
[Cb calv Ac und Cs]
+31.2 +25.3 71 +45 +49 опасность
перегрева
1000.1 970.9
12 11.08 штиль 0 12 км 8/3 600 м
[Sc Ac lent Cs]
+28.1 +25.3 85 +41 +41 опасность
перегрева
1001.2 971.6 +31.3
15 11.08 СВ 1 12 км 8/4 600 м
[Sc Ac As Cs]
+25.8 +24.2 91 +36 +36 очень
душно
1004.2 974.4
18 11.08 ЮЗ 1 10 км 8/3 600 м
[Sc Ac und Cs]
+25.2 +23.9 93 +35 +35 очень
душно
1003.1 973.3
21 11.08 штиль 0 10 км 8/3 100 м
[Sc Ac As Cs]
+24.7 +24.4 98 +34 +34 очень
душно
1002.7 972.8
00 12.08 штиль 0 12 км 10/5 200 м
[Sc Ac As Cs]
+24.7 +23.4 92 +33 +34 очень
душно
1003.4 973.5 +24.6
03 12.08 ЮВ 2 12 км 10/8 600 м
[Sc Ac As]
+27.4 +23.3 78 +37 +38 очень
душно
1004.1 974.4
06 12.08 штиль 0 12 км 10/5 300 м
[Sc Ac As Cs]
+28.6 +23.4 73 +39 +46 очень
душно
1003.0 973.5
09 12.08 ЮВ 2 12 км 10/5 600 м
[Cu Sc Ac As]
+29.9 +23.7 69 +41 +42 опасность
перегрева
1000.8 971.4
12 12.08 штиль 0 12 км 8/3 600 м
[Sc Ac und Cs]
+28.6 +25.3 82 +42 +42 опасность
перегрева
1000.4 970.9 +31.0
15 12.08 штиль 0 8000 м слабый дождь 10/8 300 м
[Sc Ac As]
+26.3 +24.7 91 +37 +37 очень
душно
1004.1 974.3 0.0
18 12.08 ЮЗ 2 10 км {дождь} 10/10 200 м
[Frnb]
+25.2 +23.3 89 +34 +34 очень
душно
1003.5 973.6 0.4
21 12.08 Ю 1 10 км {дождь} 10/10 100 м
[Frnb]
+24.3 +23.4 95 +33 +33 очень
душно
1003.0 973.1 0.2
00 13.08 штиль 0 12 км {дождь} 10/8 100 м
[Sc Ac As]
+24.6 +23.6 94 +33 +33 очень
душно
1004.0 974.1 +24.3
03 13.08 штиль 0 12 км 8/3 600 м
[Sc Ac und Cs]
+27.0 +24.8 88 +39 +48 очень
душно
1005.2 975.4
06 13.08 штиль 0 12 км 8/3 600 м
[Sc Ac und Cs]
+30.2 +24.2 70 +42 +55 опасность
перегрева
1003.3 973.9
09 13.08 штиль 0 12 км 8/3 600 м
[Sc Ac und Cs]
+30.5 +24.3 70 +43 +48 опасность
перегрева
1001.4 972.1
12 13.08 штиль 0 12 км 8/3 600 м
[Sc Ac und Cs]
+27.0 +24.1 84 +37 +37 очень
душно
1002.7 973.0 +30.8
15 13.08 штиль 0 8000 м дымка 8/3 600 м
[Sc Ac und Cs]
+25.8 +23.9 89 +35 +35 очень
душно
1005.1 975.2
18 13.08 штиль 0 6000 м дымка 8/3 600 м
[Sc Ac und Cs]
+25.0 +23.8 93 +34 +34 очень
душно
1005.4 975.4
21 13.08 штиль 0 5000 м дымка 8/3 600 м
[Sc Ac und Cs]
+24.5 +23.8 96 +33 +33 очень
душно
1004.1 974.1
00 14.08 штиль 0 10 км 10/6 600 м
[Sc Ac As]
+24.5 +23.8 96 +33 +34 очень
душно
1004.3 974.4 +24.4
03 14.08 штиль 0 12 км 10/6 600 м
[Sc Ac As]
+27.2 +24.0 83 +38 +40 очень
душно
1005.4 975.7
06 14.08 штиль 0 12 км 8/3 600 м
[Sc Ac und Cs]
+29.0 +24.4 76 +41 +54 опасность
перегрева
1004.0 974.4
09 14.08 штиль 0 12 км 6/3 600 м
[Cu med, cong Ac und Cs]
+30.0 +24.7 73 +43 +48 опасность
перегрева
1001.6 972.2
12 14.08 штиль 0 12 км 6/3 600 м
[Cu med, cong Ac und Cs]
+27.5 +24.6 84 +39 +39 очень
душно
1002.9 973.3 +30.5
15 14.08 штиль 0 8000 м дымка 6/3 600 м
[Sc Ac und Cs]
+26.4 +24.8 91 +38 +38 очень
душно
1004.8 975.0
18 14.08 штиль 0 6000 м дымка 8/3 600 м
[Sc Ac und Cs]
+25.8 +24.6 93 +36 +36 очень
душно
1004.6 974.7
21 14.08 штиль 0 5000 м дымка 6/3 600 м
[Sc Ac und Cs]
+25.2 +24.2 94 +35 +35 очень
душно
1003.7 973.8
00 15.08 штиль 0 8000 м в посл. час дождь 8/3 600 м
[Sc Ac und Cs]
+25.0 +24.3 96 +35 +36 очень
душно
1005.7 975.8 +24.8 0.4
03 15.08 В 1 12 км 10/6 100 м
[Sc Ac As]
+27.7 +23.2 77 +37 +40 очень
душно
1007.1 977.4

 

Местоположение метеостанции Nan Agromet (Таиланд): широта 18.87 долгота 100.75 высота над уровнем моря 264 м.

В архиве по умолчанию представлена погода в Nan Agromet за последнюю неделю. Архивные данные за месяц целиком и за предыдущие месяцы, начиная с января 2011 года, Вы можете получить, выбрав интересующий диапазон дат из раскрывающегося списка и нажав кнопку "Ввод!".


*Определитесь, кто Вы:
робот инопланетянин человек

Внимание! Время в таблицах - всемирное. Для получения местного времени необходимо прибавить поправку, которая в Nan Agromet равна 7 ч.

Смотрите также архив погоды в соседних городах и на ближайших метеорологических станциях:

Погода в Nan (Таиланд) (11 км)
Погода в Tha Wang Pha (Таиланд) (28 км)
Погода в Thung Chang (Таиланд) (63 км)
Погода в Phayao (Таиланд) (94 км)
Погода в Phrae (Таиланд) (100 км)
Погода в Sayaboury (Лаос) (108 км)
Погода в Lampang (Таиланд) (145 км)
Погода в Chiang Rai (Таиланд) (153 км)
Погода в Uttaradit (Таиланд) (155 км)
Погода в Chiang Rai Agromet (Таиланд) (159 км)

Пояснения к столбцам:

Ветер - указаны скорость ветра в м/с - средняя за 10 мин, порывы в срок и между сроками (в фигурных скобках) и направление, откуда дует ветер: С - северный, СВ - северо-восточный, В - восточный, ЮВ - юго-восточный, Ю - южный, ЮЗ - юго-западный, З - западный, СЗ - северо-западный.
Видимость - горизонтальная дальность видимости в метрах или километрах. При видимости от 1 до 10 км при отсутствии осадков обычно наблюдается дымка, при ухудшении видимости до 1 км и менее - туман. В сухую погоду видимость может ухудшаться дымом, пылью или мглою.
Явления - указаны атмосферные явления, наблюдавшиеся в срок или в последний час перед сроком; фигурными скобками обозначены явления, наблюдавшиеся между сроками (за 1-3 часа до срока); квадратными скобками обозначены град или гололедные отложения с указанием их диаметра в мм.
Облачность - указаны через наклонную черту общая и нижняя облачность в баллах и высота нижней границы облаков в метрах; квадратными скобками обозначены формы облаков: Ci - перистые, Cs - перисто-слоистые, Cc - перисто-кучевые, Ac - высококучевые, As - высокослоистые, Sc - слоисто-кучевые, Ns - слоисто-дождевые, Cu - кучевые, Cb - кучево-дождевые. Подробнее классификацию облаков см. в Атласе облаков (PDF).
T - Температура воздуха - температура, измеренная на высоте 2 м над землей.
Td - Температура точки росы - температура, при понижении до которой содержащийся в воздухе водяной пар достигнет насыщения.
f - Относительная влажность воздуха - влажноcть воздуха, измеренная на высоте 2 м над землей.
Te - Эффективная температура - температура, которую ощущает одетый по сезону человек в тени. Характеристика душности погоды. При расчете учитывается влияние влажности воздуха и скорости ветра на теплоощущения человека.
Tes - Эффективная температура на солнце - температура, которую ощущает человек, с поправкой на солнечный нагрев. Характеристика знойности погоды. Зависит от высоты солнца над горизонтом, облачности и скорости ветра. Ночью, в пасмурную погоду, а также при ветре 12 м/с и более поправка равна нулю.
P - Атмосферное давление - приведенное к уровню моря атмосферное давление.
Po - Атмосферное давление - измеренное на уровне метеостанции атмосферное давление.
Tmin - Минимальная температура - минимум температуры воздуха на высоте 2 м над землей.
Tmax - Максимальная температура - максимум температуры воздуха на высоте 2 м над землей.
R - Количество осадков - Количество выпавших осадков за период времени, мм. При наведении курсора мыши на число - период времени, за который выпало указанное количество осадков.
R24 - Количество осадков - Количество выпавших осадков за 24 часа, мм.
S - Снежный покров - Высота снежного покрова, см. При наведении курсора мыши на число - состояние снежного покрова и степень покрытия местности в баллах.